Weather History for KDFI - February, 2013

Change the Weather History Date:

Tuesday, February 26, 2013

  Actual Average Record
Temperature  
Mean Temperature 32 °F -  
Max Temperature 35 °F 37 °F 71 °F (1944)
Min Temperature 30 °F 19 °F -15 °F (1963)
Degree Days  
Heating Degree Days 32    
Moisture  
Dew Point 29 °F    
Average Humidity 84    
Maximum Humidity 96    
Minimum Humidity 72    
Precipitation  
Precipitation 1.02 in - - ()
Sea Level Pressure  
Sea Level Pressure 29.67 in    
Wind  
Wind Speed 13 mph (ENE)    
Max Wind Speed 18 mph    
Max Gust Speed 29 mph    
Visibility 5 miles    
Events Rain    
Averages and records for this station are not official NWS values.
T = Trace of Precipitation, MM = Missing Value Source: NWS Daily Summary

Daily Weather History Graph

Daily Weather History Graph

Search for Another Location

Airport or City:

Trip Planner

Search our weather history database for the weather conditions in past years. The results will help you decide how hot, cold, wet, or windy it might be!

Date:

Astronomy

Feb. 26, 2013 Rise Set
Actual Time 7:16 AM EST 6:25 PM EST
Civil Twilight 6:48 AM EST 6:53 PM EST
Nautical Twilight 6:16 AM EST 7:25 PM EST
Astronomical Twilight 5:44 AM EST 7:57 PM EST
Moon 7:42 PM EST (2/26) 7:17 AM EST (2/26)
Length of Visible Light 12h 04m
Length of Day
11h 08m
Full, 99% of the Moon is Illuminated
Feb 26
Full
Mar 4
Last Quarter
Mar 11
New
Mar 19
First Quarter
Mar 27
Full

Hourly Weather History & Observations

Time (EST) Temp. Windchill Dew Point Humidity Pressure Visibility Wind Dir Wind Speed Gust Speed Precip Events Conditions
12:53 AM 30.0 °F 21.1 °F 23.0 °F 75% 30.04 in 10.0 mi ENE 10.4 mph - N/A   Clear
1:53 AM 30.0 °F 21.1 °F 23.0 °F 75% 30.02 in 10.0 mi ENE 10.4 mph - N/A   Clear
2:53 AM 30.9 °F 22.8 °F 23.0 °F 72% 30.01 in 10.0 mi NE 9.2 mph - N/A   Clear
3:53 AM 30.9 °F 21.2 °F 23.0 °F 72% 29.94 in 10.0 mi ENE 12.7 mph 19.6 mph N/A   Clear
4:53 AM 30.9 °F 22.2 °F 23.0 °F 72% 29.91 in 10.0 mi ENE 10.4 mph 21.9 mph N/A   Clear
5:53 AM 30.9 °F 21.7 °F 24.1 °F 76% 29.90 in 10.0 mi ENE 11.5 mph - N/A   Clear
6:53 AM 32.0 °F 22.5 °F 24.1 °F 73% 29.87 in 10.0 mi ENE 12.7 mph 21.9 mph N/A   Clear
7:53 AM 32.0 °F 21.6 °F 24.1 °F 73% 29.86 in 10.0 mi NE 15.0 mph 25.3 mph N/A   Clear
8:53 AM 33.1 °F 23.4 °F 25.0 °F 72% 29.83 in 10.0 mi NE 13.8 mph 21.9 mph N/A   Scattered Clouds
9:53 AM 33.1 °F 23.9 °F 25.0 °F 72% 29.79 in 10.0 mi ENE 12.7 mph - 0.00 in Rain Light Rain
10:29 AM 33.8 °F 24.8 °F 26.6 °F 75% 29.75 in 6.0 mi ENE 12.7 mph 21.9 mph 0.02 in Rain Light Freezing Rain
10:40 AM 33.8 °F 23.5 °F 26.6 °F 75% 29.75 in 4.0 mi ENE 16.1 mph 21.9 mph 0.04 in Rain Light Freezing Rain
10:53 AM 33.1 °F 23.4 °F 28.0 °F 82% 29.76 in 4.0 mi ENE 13.8 mph 25.3 mph 0.06 in Rain Light Freezing Rain
11:11 AM 33.8 °F 23.9 °F 28.4 °F 81% 29.72 in 4.0 mi ENE 15.0 mph 26.5 mph 0.02 in Rain Light Freezing Rain
11:42 AM 33.8 °F 23.9 °F 28.4 °F 81% 29.68 in 2.5 mi ENE 15.0 mph 26.5 mph 0.08 in Rain Light Freezing Rain
11:53 AM 33.1 °F 22.2 °F 28.9 °F 85% 29.70 in 2.5 mi ENE 17.3 mph 26.5 mph 0.10 in Rain Rain
12:00 PM 33.8 °F 23.2 °F 28.4 °F 81% 29.67 in 3.0 mi ENE 17.3 mph 25.3 mph 0.01 in Rain Rain
12:08 PM 33.8 °F 22.8 °F 28.4 °F 81% 29.66 in 2.5 mi ENE 18.4 mph 25.3 mph 0.03 in Rain Rain
12:14 PM 33.8 °F 23.2 °F 28.4 °F 81% 29.65 in 2.0 mi ENE 17.3 mph 24.2 mph 0.04 in Rain Light Freezing Rain
12:23 PM 33.8 °F 23.5 °F 30.2 °F 87% 29.64 in 1.5 mi ENE 16.1 mph 28.8 mph 0.07 in Rain Light Freezing Rain
12:28 PM 33.8 °F 22.8 °F 30.2 °F 87% 29.63 in 1.8 mi ENE 18.4 mph 28.8 mph 0.08 in Rain Light Freezing Rain
12:35 PM 33.8 °F 23.2 °F 30.2 °F 87% 29.63 in 2.0 mi ENE 17.3 mph 26.5 mph 0.10 in Rain Light Freezing Rain
12:53 PM 33.1 °F 22.2 °F 30.0 °F 89% 29.62 in 1.8 mi ENE 17.3 mph 26.5 mph 0.15 in Rain Light Freezing Rain
1:07 PM 33.8 °F 23.5 °F 30.2 °F 87% 29.59 in 2.5 mi ENE 16.1 mph 25.3 mph 0.04 in Rain Light Freezing Rain
1:16 PM 33.8 °F 24.3 °F 30.2 °F 87% 29.59 in 1.8 mi ENE 13.8 mph 24.2 mph 0.07 in Rain Light Freezing Rain
1:39 PM 33.8 °F 23.2 °F 30.2 °F 87% 29.59 in 2.0 mi ENE 17.3 mph 25.3 mph 0.16 in Rain Rain
1:53 PM 33.1 °F 23.9 °F 30.9 °F 92% 29.62 in 2.0 mi ENE 12.7 mph 24.2 mph 0.19 in Rain Rain
2:24 PM 33.8 °F 24.3 °F 30.2 °F 87% 29.57 in 2.5 mi East 13.8 mph 24.2 mph 0.09 in Rain Light Rain
2:36 PM 33.8 °F 22.8 °F 30.2 °F 87% 29.57 in 4.0 mi ENE 18.4 mph 23.0 mph 0.10 in Rain Light Rain
2:53 PM 33.1 °F 23.0 °F 30.9 °F 92% 29.58 in 4.0 mi ENE 15.0 mph 25.3 mph 0.12 in Rain Light Rain
3:53 PM 34.0 °F 23.8 °F 30.9 °F 89% 29.55 in 4.0 mi ENE 16.1 mph 25.3 mph 0.08 in Rain Light Rain
4:22 PM 33.8 °F 25.3 °F 30.2 °F 87% 29.52 in 2.0 mi ENE 11.5 mph 23.0 mph 0.03 in Rain Light Rain
4:40 PM 33.8 °F 24.3 °F 32.0 °F 93% 29.51 in 2.5 mi ENE 13.8 mph 25.3 mph 0.05 in Rain Light Rain
4:53 PM 34.0 °F 25.0 °F 32.0 °F 92% 29.53 in 2.5 mi ENE 12.7 mph - 0.07 in Rain Rain
5:16 PM 33.8 °F 24.3 °F 32.0 °F 93% 29.50 in 3.0 mi ENE 13.8 mph 20.7 mph 0.03 in Rain Light Rain
5:53 PM 34.0 °F 26.6 °F 32.0 °F 92% 29.52 in 3.0 mi ENE 9.2 mph 19.6 mph 0.09 in Rain Rain
6:53 PM 35.1 °F 27.4 °F 33.1 °F 92% 29.51 in 6.0 mi ENE 10.4 mph - 0.07 in Rain Light Rain
7:53 PM 35.1 °F 27.4 °F 33.1 °F 92% 29.50 in 4.0 mi ENE 10.4 mph 16.1 mph 0.01 in Rain Light Rain
8:48 PM 35.6 °F 28.0 °F 33.8 °F 93% 29.47 in 4.0 mi ENE 10.4 mph 17.3 mph 0.01 in Rain Light Rain
8:53 PM 35.1 °F 28.6 °F 33.1 °F 92% 29.49 in 4.0 mi ENE 8.1 mph - 0.01 in   Overcast
9:53 PM 35.1 °F 28.6 °F 33.1 °F 92% 29.47 in 6.0 mi ENE 8.1 mph 17.3 mph 0.01 in   Overcast
10:53 PM 35.1 °F 30.1 °F 34.0 °F 96% 29.45 in 10.0 mi ENE 5.8 mph - N/A   Overcast
11:53 PM 35.1 °F 31.0 °F 34.0 °F 96% 29.45 in 8.0 mi ENE 4.6 mph - 0.06 in Rain Light Rain